Orbital Elements at Epoch 2459200.5 (2020-Dec-17.0) TDB
Reference: JPL 14 (heliocentric ecliptic J2000)
Element | Value | Uncertainty (1-sigma) | Units |
e | .2744689333231695 | 4.1084e-08 | |
a | 2.734069473885069 | 1.3555e-08 | au |
q | 1.983652341756395 | 1.0857e-07 | au |
i | 7.455582181000564 | 5.5245e-06 | deg |
node | 139.80115995527 | 3.909e-05 | deg |
peri | 307.8388981440692 | 4.1073e-05 | deg |
M | 251.6437679170092 | 1.1669e-05 | deg |
tp | 2459697.508870275347 (2022-Apr-28.00887028) | 5.5164e-05 | TDB |
period | 1651.249677656624 4.52 | 1.228e-05 3.362e-08 | d yr |
n | .2180166966093795 | 1.6214e-09 | deg/d |
Q | 3.484486606013744 | 1.7276e-08 | au |
|
| | Orbit Determination Parameters
Additional Information
|